Back to catalog

DELTA 1 DEB

LostLEO
NORAD 29187·DEBRIS·🇺🇸 United States

Launched Jan 11, 1968 from Vandenberg Space Force Base

Loading…

Next Passes (next 24 hours)

TLE

StaleSource: Space-Track

Epoch: Aug 7, 2026, 14:51 UTC

1 29187U 68002L   26219.61878652 -.00000007  00000-0  21298-3 0  9999
2 29187 105.8081  11.8134 0295276 140.3644 285.3547 12.91309150608754

Track DELTA 1 DEB in real time with AllMySat

Download on the App Store